Qaqortoq

KL  EN  DA
ASIAQ
Weather Now GREENLAND SURVEY
Updated [WGT/WGST] Temperature [°C] Wind [m/s] Air pressure [hPa] Relative humidity [%] Precipitation [mm]
Present Wind chill Speed Max
25.02 08:00n/an/a0,0 ⇓0,01008n/a0,0
25.02 07:00-10,10,00,0 ⇓0,01009550,0
25.02 06:00-10,60,00,0 ⇓0,01009510,0
25.02 05:00-11,60,00,0 ⇓0,01009510,0
25.02 04:00-12,10,00,0 ⇓0,01009510,0
25.02 03:00-11,80,00,0 ⇓0,01009500,0
25.02 02:00-12,10,00,0 ⇓0,01009520,0
25.02 01:00-11,40,00,0 ⇓0,01009470,0
25.02 00:00-11,50,00,0 ⇓0,01008540,0
24.02 23:00-11,50,00,0 ⇓0,01008580,1
24.02 22:00-10,30,00,0 ⇓0,01007510,0
24.02 21:00-10,20,00,0 ⇓0,01007490,0
24.02 20:00-11,20,00,0 ⇓0,01006600,0
24.02 19:00-11,20,00,0 ⇓0,01004610,0
24.02 18:00-9,80,00,0 ⇓0,01003550,0
24.02 17:00-9,60,00,0 ⇓0,01002590,0
24.02 16:00n/an/a0,0 ⇓0,01001590,0
24.02 15:00n/an/a0,0 ⇓0,0999n/a0,0
24.02 14:00-8,20,00,0 ⇓0,0998530,0
24.02 13:00-7,60,00,0 ⇓0,0997540,0
24.02 12:00n/an/a0,0 ⇓0,0996510,0
24.02 11:00n/an/a0,0 ⇓0,0995n/a0,0
24.02 10:00-8,40,00,0 ⇓0,0995560,1
24.02 09:00-8,80,00,0 ⇓0,0994720,1
24.02 08:00-9,20,00,0 ⇓0,0994680,0
Position: (60.716667,-46.033333)

[Back]